Time,TemperatureF,DewpointF,PressureIn,WindDirection,WindDirectionDegrees,WindSpeedMPH,WindSpeedGustMPH,Humidity,HourlyPrecipIn,Conditions,Clouds,dailyrainin,SoftwareType,DateUTC
2013-03-06 00:00:00,18.9,15.9,30.27,NNW,330,5.0,7.0,88,0.00,,,0.59,VWS V15.00,2013-03-06 06:00:00,
2013-03-06 00:04:00,18.9,15.9,30.27,NNW,329,2.0,5.0,88,0.00,,OVC023,0.00,VWS V14.01,2013-03-06 06:04:00,
2013-03-06 00:09:00,19.1,16.1,30.27,NNW,329,3.0,6.0,88,0.00,,OVC023,0.00,VWS V14.01,2013-03-06 06:09:00,
2013-03-06 00:14:00,19.2,16.2,30.27,NNW,329,3.0,6.0,88,0.00,,OVC023,0.00,VWS V14.01,2013-03-06 06:14:00,
2013-03-06 00:15:00,19.4,16.4,30.27,NNW,329,0.0,6.0,88,0.00,,,0.00,VWS V15.00,2013-03-06 06:15:00,
2013-03-06 00:20:00,19.5,16.5,30.27,NNW,329,0.0,0.0,88,0.00,,OVC023,0.00,VWS V14.01,2013-03-06 06:20:00,
2013-03-06 00:25:00,19.7,16.7,30.27,NNW,329,3.0,4.0,88,0.00,,OVC023,0.00,VWS V14.01,2013-03-06 06:25:00,
2013-03-06 00:30:00,19.7,16.7,30.27,NNW,329,0.0,4.0,88,0.00,,OVC023,0.00,VWS V14.01,2013-03-06 06:30:00,
2013-03-06 00:35:00,19.9,16.9,30.26,NNW,329,0.0,0.0,88,0.00,,OVC026,0.00,VWS V14.01,2013-03-06 06:35:00,
2013-03-06 00:40:00,19.9,16.9,30.26,NNW,329,0.0,0.0,88,0.00,,OVC026,0.00,VWS V14.01,2013-03-06 06:40:00,
2013-03-06 00:45:00,19.9,16.9,30.26,NNW,329,0.0,0.0,88,0.00,,OVC026,0.00,VWS V14.01,2013-03-06 06:45:00,
2013-03-06 00:50:00,19.9,16.9,30.27,NNW,329,0.0,0.0,88,0.00,,OVC026,0.00,VWS V14.01,2013-03-06 06:50:00,
2013-03-06 00:55:00,19.9,16.9,30.27,NNW,329,0.0,0.0,88,0.00,,OVC026,0.00,VWS V14.01,2013-03-06 06:55:00,
2013-03-06 01:00:00,19.9,16.9,30.27,NNW,329,0.0,0.0,88,0.00,,OVC026,0.00,VWS V14.01,2013-03-06 07:00:00,
2013-03-06 01:05:00,19.9,16.9,30.27,NNW,329,0.0,0.0,88,0.00,,SCT080,0.00,VWS V14.01,2013-03-06 07:05:00,
2013-03-06 01:10:00,20.0,17.0,30.27,NNW,329,0.0,0.0,88,0.00,,SCT080,0.00,VWS V14.01,2013-03-06 07:10:00,
2013-03-06 01:15:00,20.0,17.0,30.27,NNW,329,0.0,0.0,88,0.00,,SCT080,0.00,VWS V14.01,2013-03-06 07:15:00,
2013-03-06 01:20:00,20.0,17.0,30.28,NNW,329,0.0,0.0,88,0.00,,SCT080,0.00,VWS V14.01,2013-03-06 07:20:00,
2013-03-06 01:25:00,20.0,17.0,30.28,NNW,329,0.0,0.0,88,0.00,,SCT080,0.00,VWS V14.01,2013-03-06 07:25:00,
2013-03-06 01:30:00,20.0,17.0,30.28,NNW,329,3.0,6.0,88,0.00,,SCT080,0.00,VWS V14.01,2013-03-06 07:30:00,
2013-03-06 01:35:00,20.0,17.0,30.28,NNW,329,4.0,5.0,88,0.00,,BKN021,0.00,VWS V14.01,2013-03-06 07:35:00,
2013-03-06 01:40:00,20.2,17.2,30.28,NNW,329,4.0,6.0,88,0.00,,BKN021,0.00,VWS V14.01,2013-03-06 07:40:00,
2013-03-06 01:45:00,20.2,17.0,30.28,NNW,329,3.0,6.0,87,0.00,,BKN021,0.00,VWS V14.01,2013-03-06 07:45:00,
2013-03-06 01:50:00,20.2,17.0,30.29,NNW,329,8.0,8.0,87,0.00,,BKN021,0.00,VWS V14.01,2013-03-06 07:50:00,
2013-03-06 01:56:00,20.2,17.0,30.29,NW,325,7.0,9.0,87,0.00,,BKN021,0.00,VWS V14.01,2013-03-06 07:56:00,
2013-03-06 02:00:00,20.0,16.5,30.30,NW,324,0.0,10.0,86,0.00,,,0.00,VWS V15.00,2013-03-06 08:00:00,
2013-03-06 02:01:00,20.0,16.8,30.29,NW,324,0.0,10.0,87,0.00,,BKN021,0.00,VWS V14.01,2013-03-06 08:01:00,
2013-03-06 02:06:00,20.0,16.5,30.30,NW,322,8.0,10.0,86,0.00,,SCT021,0.00,VWS V14.01,2013-03-06 08:06:00,
2013-03-06 02:11:00,19.9,16.4,30.30,NW,315,11.0,11.0,86,0.00,,SCT021,0.00,VWS V14.01,2013-03-06 08:11:00,
2013-03-06 02:15:00,19.5,16.0,30.30,NW,325,4.0,13.0,86,0.00,,,0.00,VWS V15.00,2013-03-06 08:15:00,
2013-03-06 02:16:00,19.5,16.0,30.30,NW,312,10.0,13.0,86,0.00,,SCT021,0.00,VWS V14.01,2013-03-06 08:16:00,
2013-03-06 02:21:00,19.4,15.6,30.30,NNW,329,2.0,6.0,85,0.00,,SCT021,0.00,VWS V14.01,2013-03-06 08:21:00,
2013-03-06 02:26:00,19.1,15.3,30.30,NNW,333,5.0,11.0,85,0.00,,SCT021,0.00,VWS V14.01,2013-03-06 08:26:00,
2013-03-06 02:30:00,18.6,14.9,30.30,NW,324,2.0,11.0,85,0.00,,,0.00,VWS V15.00,2013-03-06 08:30:00,
2013-03-06 02:31:00,18.8,15.1,30.30,NNW,328,6.0,11.0,85,0.00,,SCT021,0.00,VWS V14.01,2013-03-06 08:31:00,
2013-03-06 02:36:00,18.3,14.6,30.30,NNW,330,5.0,10.0,85,0.00,,CLR,0.00,VWS V14.01,2013-03-06 08:36:00,
2013-03-06 02:41:00,18.0,14.3,30.30,NNW,327,5.0,10.0,85,0.00,,CLR,0.00,VWS V14.01,2013-03-06 08:41:00,
2013-03-06 02:45:00,17.3,13.6,30.30,NNW,329,4.0,10.0,85,0.00,,,0.00,VWS V15.00,2013-03-06 08:45:00,
2013-03-06 02:46:00,17.5,13.8,30.30,NNW,327,6.0,10.0,85,0.00,,CLR,0.00,VWS V14.01,2013-03-06 08:46:00,
2013-03-06 02:51:00,17.2,13.5,30.30,NNW,337,4.0,7.0,85,0.00,,CLR,0.00,VWS V14.01,2013-03-06 08:51:00,
2013-03-06 02:56:00,16.9,13.2,30.30,NNW,332,3.0,7.0,85,0.00,,CLR,0.00,VWS V14.01,2013-03-06 08:56:00,
2013-03-06 03:00:00,16.4,12.7,30.30,NNW,332,5.0,7.0,85,0.00,,,0.00,VWS V15.00,2013-03-06 09:00:00,
2013-03-06 03:01:00,16.5,13.1,30.30,NNW,331,0.0,7.0,86,0.00,,CLR,0.00,VWS V14.01,2013-03-06 09:01:00,
2013-03-06 03:06:00,16.2,12.8,30.30,NNW,331,0.0,6.0,86,0.00,,CLR,0.00,VWS V14.01,2013-03-06 09:06:00,
2013-03-06 03:11:00,15.9,12.5,30.30,NNW,332,1.0,6.0,86,0.00,,CLR,0.00,VWS V14.01,2013-03-06 09:11:00,
2013-03-06 03:15:00,15.6,12.2,30.31,NNW,329,5.0,9.0,86,0.00,,,0.00,VWS V15.00,2013-03-06 09:15:00,
2013-03-06 03:16:00,15.6,12.2,30.30,NNW,329,6.0,9.0,86,0.00,,CLR,0.00,VWS V14.01,2013-03-06 09:16:00,
2013-03-06 03:21:00,15.7,12.3,30.31,NNW,328,3.0,9.0,86,0.00,,CLR,0.00,VWS V14.01,2013-03-06 09:21:00,
2013-03-06 03:26:00,15.7,12.3,30.31,NNW,329,5.0,9.0,86,0.00,,CLR,0.00,VWS V14.01,2013-03-06 09:26:00,
2013-03-06 03:30:00,15.7,12.3,30.31,NNW,329,4.0,9.0,86,0.00,,,0.00,VWS V15.00,2013-03-06 09:30:00,
2013-03-06 03:31:00,15.7,12.3,30.31,NNW,329,1.0,9.0,86,0.00,,CLR,0.00,VWS V14.01,2013-03-06 09:31:00,
2013-03-06 03:36:00,15.7,12.3,30.31,NNW,330,4.0,7.0,86,0.00,,CLR,0.00,VWS V14.01,2013-03-06 09:36:00,
2013-03-06 03:41:00,15.7,12.3,30.31,NNW,330,0.0,7.0,86,0.00,,CLR,0.00,VWS V14.01,2013-03-06 09:41:00,
2013-03-06 03:45:00,15.6,12.2,30.31,NNW,330,0.0,7.0,86,0.00,,,0.00,VWS V15.00,2013-03-06 09:45:00,
2013-03-06 03:46:00,15.6,12.2,30.31,NNW,330,0.0,7.0,86,0.00,,CLR,0.00,VWS V14.01,2013-03-06 09:46:00,
2013-03-06 03:51:00,15.6,12.2,30.31,NNW,330,0.0,5.0,86,0.00,,CLR,0.00,VWS V14.01,2013-03-06 09:51:00,
2013-03-06 03:56:00,15.2,11.8,30.31,NNW,331,2.0,6.0,86,0.00,,CLR,0.00,VWS V14.01,2013-03-06 09:56:00,
2013-03-06 04:00:00,14.8,11.4,30.31,NNW,331,2.0,6.0,86,0.00,,,0.00,VWS V15.00,2013-03-06 10:00:00,
2013-03-06 04:01:00,14.9,11.5,30.31,NNW,331,3.0,6.0,86,0.00,,CLR,0.00,VWS V14.01,2013-03-06 10:01:00,
2013-03-06 04:06:00,14.4,11.0,30.31,NNW,331,0.0,3.0,86,0.00,,CLR,0.00,VWS V14.01,2013-03-06 10:06:00,
2013-03-06 04:11:00,14.0,10.6,30.31,NNW,331,0.0,3.0,86,0.00,,CLR,0.00,VWS V14.01,2013-03-06 10:11:00,
2013-03-06 04:15:00,13.3,9.9,30.32,NNW,331,0.0,3.0,86,0.00,,,0.00,VWS V15.00,2013-03-06 10:15:00,
2013-03-06 04:17:00,13.3,9.9,30.31,NNW,331,0.0,3.0,86,0.00,,CLR,0.00,VWS V14.01,2013-03-06 10:17:00,
2013-03-06 04:22:00,12.8,9.4,30.32,NNW,331,0.0,0.0,86,0.00,,CLR,0.00,VWS V14.01,2013-03-06 10:22:00,
2013-03-06 04:27:00,12.4,9.0,30.32,NNW,331,0.0,0.0,86,0.00,,CLR,0.00,VWS V14.01,2013-03-06 10:27:00,
2013-03-06 04:30:00,12.1,9.0,30.33,NNW,331,0.0,0.0,87,0.00,,,0.00,VWS V15.00,2013-03-06 10:30:00,
2013-03-06 04:32:00,12.1,9.0,30.33,NNW,331,0.0,0.0,87,0.00,,CLR,0.00,VWS V14.01,2013-03-06 10:32:00,
2013-03-06 04:37:00,11.7,8.6,30.33,NNW,331,0.0,0.0,87,0.00,,CLR,0.00,VWS V14.01,2013-03-06 10:37:00,
2013-03-06 04:42:00,11.6,8.5,30.33,NNW,331,0.0,0.0,87,0.00,,CLR,0.00,VWS V14.01,2013-03-06 10:42:00,
2013-03-06 04:45:00,11.2,8.1,30.33,NNW,331,0.0,0.0,87,0.00,,,0.00,VWS V15.00,2013-03-06 10:45:00,
2013-03-06 04:47:00,11.2,8.1,30.33,NNW,331,0.0,0.0,87,0.00,,CLR,0.00,VWS V14.01,2013-03-06 10:47:00,
2013-03-06 04:52:00,11.1,8.0,30.33,NNW,331,0.0,0.0,87,0.00,,CLR,0.00,VWS V14.01,2013-03-06 10:52:00,
2013-03-06 04:57:00,10.9,7.8,30.33,NNW,331,0.0,0.0,87,0.00,,CLR,0.00,VWS V14.01,2013-03-06 10:57:00,
2013-03-06 05:00:00,10.7,7.6,30.33,NNW,331,0.0,0.0,87,0.00,,,0.00,VWS V15.00,2013-03-06 11:00:00,
2013-03-06 05:02:00,10.7,7.6,30.33,NNW,331,0.0,0.0,87,0.00,,CLR,0.00,VWS V14.01,2013-03-06 11:02:00,
2013-03-06 05:07:00,10.4,7.3,30.33,NNW,331,0.0,0.0,87,0.00,,CLR,0.00,VWS V14.01,2013-03-06 11:07:00,
2013-03-06 05:12:00,10.2,7.1,30.33,NNW,331,0.0,0.0,87,0.00,,CLR,0.00,VWS V14.01,2013-03-06 11:12:00,
2013-03-06 05:15:00,10.2,7.4,30.34,NNW,331,0.0,0.0,88,0.00,,,0.00,VWS V15.00,2013-03-06 11:15:00,
2013-03-06 05:17:00,10.2,7.4,30.34,NNW,331,0.0,0.0,88,0.00,,CLR,0.00,VWS V14.01,2013-03-06 11:17:00,
2013-03-06 05:22:00,10.0,7.2,30.34,NNW,331,0.0,0.0,88,0.00,,CLR,0.00,VWS V14.01,2013-03-06 11:22:00,
2013-03-06 05:27:00,9.7,6.6,30.34,NNW,331,0.0,0.0,87,0.00,,CLR,0.00,VWS V14.01,2013-03-06 11:27:00,
2013-03-06 05:30:00,9.5,6.7,30.34,NNW,331,0.0,0.0,88,0.00,,,0.00,VWS V15.00,2013-03-06 11:30:00,
2013-03-06 05:32:00,9.5,6.7,30.34,NNW,331,0.0,0.0,88,0.00,,CLR,0.00,VWS V14.01,2013-03-06 11:32:00,
2013-03-06 05:37:00,9.3,6.2,30.34,NNW,331,0.0,0.0,87,0.00,,CLR,0.00,VWS V14.01,2013-03-06 11:37:00,
2013-03-06 05:42:00,9.0,5.9,30.34,NNW,331,0.0,0.0,87,0.00,,CLR,0.00,VWS V14.01,2013-03-06 11:42:00,
2013-03-06 05:45:00,8.6,5.5,30.35,NNW,331,0.0,0.0,87,0.00,,,0.00,VWS V15.00,2013-03-06 11:45:00,
2013-03-06 05:47:00,8.6,5.5,30.35,NNW,331,0.0,0.0,87,0.00,,CLR,0.00,VWS V14.01,2013-03-06 11:47:00,
2013-03-06 05:52:00,8.4,5.3,30.35,NNW,331,0.0,0.0,87,0.00,,CLR,0.00,VWS V14.01,2013-03-06 11:52:00,
2013-03-06 05:57:00,8.1,5.0,30.35,NNW,331,0.0,0.0,87,0.00,,CLR,0.00,VWS V14.01,2013-03-06 11:57:00,
2013-03-06 06:00:00,7.9,4.8,30.35,NNW,331,0.0,0.0,87,0.00,,,0.00,VWS V15.00,2013-03-06 12:00:00,
2013-03-06 06:02:00,7.9,4.8,30.35,NNW,331,0.0,0.0,87,0.00,,CLR,0.00,VWS V14.01,2013-03-06 12:02:00,
2013-03-06 06:07:00,7.7,4.7,30.35,NNW,331,0.0,0.0,87,0.00,,CLR,0.00,VWS V14.01,2013-03-06 12:07:00,
2013-03-06 06:12:00,7.4,4.1,30.35,NNW,331,0.0,0.0,86,0.00,,SCT120,0.00,VWS V14.01,2013-03-06 12:12:00,
2013-03-06 06:15:00,7.0,3.7,30.36,NNW,331,0.0,0.0,86,0.00,,,0.00,VWS V15.00,2013-03-06 12:15:00,
2013-03-06 06:17:00,7.0,3.7,30.36,NNW,331,0.0,0.0,86,0.00,,SCT120,0.00,VWS V14.01,2013-03-06 12:17:00,
2013-03-06 06:23:00,7.0,3.7,30.36,NNW,331,0.0,0.0,86,0.00,,SCT120,0.00,VWS V14.01,2013-03-06 12:23:00,
2013-03-06 06:28:00,7.0,3.7,30.36,NNW,331,0.0,0.0,86,0.00,,SCT120,0.00,VWS V14.01,2013-03-06 12:28:00,
2013-03-06 06:30:00,6.5,3.2,30.37,NNW,331,0.0,0.0,86,0.00,,,0.00,VWS V15.00,2013-03-06 12:30:00,
2013-03-06 06:33:00,6.5,3.2,30.37,NNW,331,0.0,0.0,86,0.00,,SCT110,0.00,VWS V14.01,2013-03-06 12:33:00,
2013-03-06 06:38:00,6.3,3.0,30.37,NNW,331,0.0,0.0,86,0.00,,SCT110,0.00,VWS V14.01,2013-03-06 12:38:00,
2013-03-06 06:43:00,6.1,2.8,30.37,NNW,331,0.0,0.0,86,0.00,,SCT110,0.00,VWS V14.01,2013-03-06 12:43:00,
2013-03-06 06:45:00,6.1,2.8,30.37,NNW,331,0.0,0.0,86,0.00,,,0.00,VWS V15.00,2013-03-06 12:45:00,
2013-03-06 06:48:00,6.1,2.8,30.37,NNW,331,0.0,0.0,86,0.00,,SCT110,0.00,VWS V14.01,2013-03-06 12:48:00,
2013-03-06 06:53:00,5.8,2.3,30.37,NNW,331,0.0,0.0,85,0.00,,SCT110,0.00,VWS V14.01,2013-03-06 12:53:00,
2013-03-06 06:58:00,5.2,1.7,30.37,NNW,331,0.0,0.0,85,0.00,,SCT110,0.00,VWS V14.01,2013-03-06 12:58:00,
2013-03-06 07:00:00,5.0,1.5,30.38,NNW,331,0.0,0.0,85,0.00,,,0.00,VWS V15.00,2013-03-06 13:00:00,
2013-03-06 07:03:00,5.0,1.5,30.38,NNW,331,0.0,0.0,85,0.00,,SCT110,0.00,VWS V14.01,2013-03-06 13:03:00,
2013-03-06 07:08:00,5.2,1.7,30.38,NNW,331,0.0,0.0,85,0.00,,SCT110,0.00,VWS V14.01,2013-03-06 13:08:00,
2013-03-06 07:13:00,5.2,1.7,30.38,NNW,331,0.0,0.0,85,0.00,,SCT110,0.00,VWS V14.01,2013-03-06 13:13:00,
2013-03-06 07:15:00,5.8,2.5,30.38,NW,319,5.0,8.0,86,0.00,,,0.00,VWS V15.00,2013-03-06 13:15:00,
2013-03-06 07:18:00,5.8,2.5,30.38,NW,317,4.0,8.0,86,0.00,,SCT110,0.00,VWS V14.01,2013-03-06 13:18:00,
2013-03-06 07:23:00,6.1,2.8,30.38,NW,317,0.0,8.0,86,0.00,,SCT110,0.00,VWS V14.01,2013-03-06 13:23:00,
2013-03-06 07:28:00,6.3,3.0,30.38,NW,317,0.0,8.0,86,0.00,,SCT110,0.00,VWS V14.01,2013-03-06 13:28:00,
2013-03-06 07:30:00,6.3,3.0,30.39,NW,317,0.0,8.0,86,0.00,,,0.00,VWS V15.00,2013-03-06 13:30:00,
2013-03-06 07:33:00,6.3,2.8,30.39,NW,317,0.0,0.0,85,0.00,,SCT100,0.00,VWS V14.01,2013-03-06 13:33:00,
2013-03-06 07:38:00,5.6,1.8,30.39,NW,317,0.0,0.0,84,0.00,,SCT100,0.00,VWS V14.01,2013-03-06 13:38:00,
2013-03-06 07:43:00,5.8,2.3,30.39,NW,317,0.0,4.0,85,0.00,,SCT100,0.00,VWS V14.01,2013-03-06 13:43:00,
2013-03-06 07:45:00,6.1,2.6,30.39,NW,317,0.0,4.0,85,0.00,,,0.00,VWS V15.00,2013-03-06 13:45:00,
2013-03-06 07:49:00,6.3,2.8,30.39,NW,317,0.0,0.0,85,0.00,,SCT100,0.00,VWS V14.01,2013-03-06 13:49:00,
2013-03-06 07:54:00,7.2,3.9,30.39,NW,317,0.0,0.0,86,0.00,,SCT100,0.00,VWS V14.01,2013-03-06 13:54:00,
2013-03-06 07:59:00,7.9,4.6,30.39,NW,317,0.0,0.0,86,0.00,,SCT100,0.00,VWS V14.01,2013-03-06 13:59:00,
2013-03-06 08:00:00,8.3,5.2,30.39,NW,317,3.0,3.0,87,0.00,,,0.00,VWS V15.00,2013-03-06 14:00:00,
2013-03-06 08:04:00,8.4,5.3,30.39,NW,317,5.0,5.0,87,0.00,,SCT100,0.00,VWS V14.01,2013-03-06 14:04:00,
2013-03-06 08:09:00,9.0,5.9,30.39,NW,319,0.0,8.0,87,0.00,,SCT100,0.00,VWS V14.01,2013-03-06 14:09:00,
2013-03-06 08:14:00,9.5,6.7,30.39,NW,319,3.0,8.0,88,0.00,,SCT100,0.00,VWS V14.01,2013-03-06 14:14:00,
2013-03-06 08:15:00,10.2,7.4,30.39,NW,319,0.0,8.0,88,0.00,,,0.00,VWS V15.00,2013-03-06 14:15:00,
2013-03-06 08:19:00,10.4,7.6,30.39,NW,319,3.0,4.0,88,0.00,,SCT100,0.00,VWS V14.01,2013-03-06 14:19:00,
2013-03-06 08:24:00,11.1,8.2,30.39,NW,319,0.0,5.0,88,0.00,,SCT100,0.00,VWS V14.01,2013-03-06 14:24:00,
2013-03-06 08:29:00,11.6,8.7,30.39,NW,319,2.0,8.0,88,0.00,,SCT100,0.00,VWS V14.01,2013-03-06 14:29:00,
2013-03-06 08:30:00,11.9,9.0,30.40,NW,319,5.0,8.0,88,0.00,,,0.00,VWS V15.00,2013-03-06 14:30:00,
2013-03-06 08:34:00,12.3,9.4,30.40,NW,319,4.0,5.0,88,0.00,,CLR,0.00,VWS V14.01,2013-03-06 14:34:00,
2013-03-06 08:39:00,13.1,10.2,30.40,NW,318,4.0,8.0,88,0.00,,CLR,0.00,VWS V14.01,2013-03-06 14:39:00,
2013-03-06 08:44:00,14.0,11.1,30.40,NW,319,3.0,10.0,88,0.00,,CLR,0.00,VWS V14.01,2013-03-06 14:44:00,
2013-03-06 08:45:00,14.4,11.5,30.40,NW,319,6.0,10.0,88,0.00,,,0.00,VWS V15.00,2013-03-06 14:45:00,
2013-03-06 08:49:00,14.8,11.9,30.40,NW,322,6.0,9.0,88,0.00,,CLR,0.00,VWS V14.01,2013-03-06 14:49:00,
2013-03-06 08:54:00,15.2,12.0,30.40,NW,324,11.0,12.0,87,0.00,,CLR,0.00,VWS V14.01,2013-03-06 14:54:00,
2013-03-06 08:59:00,15.7,12.3,30.40,NNW,329,8.0,12.0,86,0.00,,CLR,0.00,VWS V14.01,2013-03-06 14:59:00,
2013-03-06 09:00:00,16.1,12.7,30.39,NNW,332,0.0,12.0,86,0.00,,,0.00,VWS V15.00,2013-03-06 15:00:00,
2013-03-06 09:04:00,16.2,12.8,30.39,NNW,332,0.0,5.0,86,0.00,,CLR,0.00,VWS V14.01,2013-03-06 15:04:00,
2013-03-06 09:10:00,16.4,12.7,30.39,NW,314,0.0,11.0,85,0.00,,CLR,0.00,VWS V14.01,2013-03-06 15:10:00,
2013-03-06 09:15:00,16.7,13.0,30.39,NW,319,2.0,11.0,85,0.00,,CLR,0.00,VWS V14.01,2013-03-06 15:15:00,
2013-03-06 09:20:00,17.3,13.6,30.40,NNW,329,2.0,5.0,85,0.00,,CLR,0.00,VWS V14.01,2013-03-06 15:20:00,
2013-03-06 09:25:00,17.8,13.8,30.40,NW,318,5.0,13.0,84,0.00,,CLR,0.00,VWS V14.01,2013-03-06 15:25:00,
2013-03-06 09:30:00,18.4,14.1,30.40,NW,307,10.0,13.0,83,0.00,,CLR,0.00,VWS V14.01,2013-03-06 15:30:00,
2013-03-06 09:35:00,18.9,14.3,30.40,North,349,1.0,9.0,82,0.00,,OVC018,0.00,VWS V14.01,2013-03-06 15:35:00,
2013-03-06 09:40:00,19.5,14.6,30.40,NNW,333,10.0,11.0,81,0.00,,OVC018,0.00,VWS V14.01,2013-03-06 15:40:00,
2013-03-06 09:45:00,19.7,14.3,30.40,North,356,14.0,14.0,79,0.00,,OVC018,0.00,VWS V14.01,2013-03-06 15:45:00,
2013-03-06 09:50:00,19.9,14.2,30.40,NW,322,7.0,17.0,78,0.00,,OVC018,0.00,VWS V14.01,2013-03-06 15:50:00,
2013-03-06 09:55:00,20.2,14.4,30.40,NNW,341,9.0,17.0,78,0.00,,OVC018,0.00,VWS V14.01,2013-03-06 15:55:00,
2013-03-06 10:00:00,20.6,14.2,30.40,NW,311,5.0,17.0,76,0.00,,OVC018,0.00,VWS V14.01,2013-03-06 16:00:00,
2013-03-06 10:05:00,20.8,14.1,30.40,NW,325,15.0,21.0,75,0.00,,OVC018,0.00,VWS V14.01,2013-03-06 16:05:00,
2013-03-06 10:10:00,21.0,14.0,30.40,NW,326,16.0,21.0,74,0.00,,OVC018,0.00,VWS V14.01,2013-03-06 16:10:00,
2013-03-06 10:15:00,20.5,13.2,30.40,North,350,15.0,21.0,73,0.00,,OVC018,0.00,VWS V14.01,2013-03-06 16:15:00,
2013-03-06 10:20:00,20.5,13.5,30.40,NNW,343,9.0,11.0,74,0.00,,OVC018,0.00,VWS V14.01,2013-03-06 16:20:00,
2013-03-06 10:25:00,20.8,14.1,30.40,NW,319,12.0,15.0,75,0.00,,OVC018,0.00,VWS V14.01,2013-03-06 16:25:00,
2013-03-06 10:30:00,21.0,13.4,30.40,NW,310,14.0,19.0,72,0.00,,OVC018,0.00,VWS V14.01,2013-03-06 16:30:00,
2013-03-06 10:35:00,21.1,13.8,30.40,NW,324,7.0,14.0,73,0.00,,OVC014,0.00,VWS V14.01,2013-03-06 16:35:00,
2013-03-06 10:40:00,21.1,13.8,30.40,NNW,338,4.0,14.0,73,0.00,,OVC014,0.00,VWS V14.01,2013-03-06 16:40:00,
2013-03-06 10:45:00,21.6,14.0,30.40,NNW,339,11.0,14.0,72,0.00,,OVC014,0.00,VWS V14.01,2013-03-06 16:45:00,
2013-03-06 10:50:00,21.4,13.8,30.39,NW,317,6.0,11.0,72,0.00,,OVC014,0.00,VWS V14.01,2013-03-06 16:50:00,
2013-03-06 10:55:00,21.8,14.2,30.39,NNW,345,7.0,13.0,72,0.00,,OVC014,0.00,VWS V14.01,2013-03-06 16:55:00,
2013-03-06 11:00:00,22.4,14.4,30.39,NNW,338,10.0,13.0,71,0.00,,OVC014,0.00,VWS V14.01,2013-03-06 17:00:00,
2013-03-06 11:05:00,22.9,14.9,30.39,NNW,336,10.0,13.0,71,0.00,,OVC014,0.00,VWS V14.01,2013-03-06 17:05:00,
2013-03-06 11:10:00,23.0,14.4,30.39,NNW,328,5.0,13.0,69,0.00,,OVC014,0.00,VWS V14.01,2013-03-06 17:10:00,
2013-03-06 11:15:00,23.5,14.8,30.39,NNW,347,3.0,13.0,69,0.00,,OVC014,0.00,VWS V14.01,2013-03-06 17:15:00,
2013-03-06 11:20:00,23.8,15.1,30.38,NNW,345,3.0,12.0,69,0.00,,OVC014,0.00,VWS V14.01,2013-03-06 17:20:00,
2013-03-06 11:25:00,23.6,14.6,30.38,NW,320,0.0,12.0,68,0.00,,OVC014,0.00,VWS V14.01,2013-03-06 17:25:00,
2013-03-06 11:30:00,23.5,14.5,30.38,NW,324,4.0,12.0,68,0.00,,,0.00,VWS V15.00,2013-03-06 17:30:00,
2013-03-06 11:31:00,23.8,14.8,30.38,North,359,5.0,12.0,68,0.00,,OVC014,0.00,VWS V14.01,2013-03-06 17:31:00,
2013-03-06 11:36:00,23.5,14.8,30.38,NNW,335,10.0,10.0,69,0.00,,OVC016,0.00,VWS V14.01,2013-03-06 17:36:00,
2013-03-06 11:41:00,23.9,15.2,30.38,North,351,6.0,10.0,69,0.00,,OVC016,0.00,VWS V14.01,2013-03-06 17:41:00,
2013-03-06 11:45:00,24.2,14.8,30.37,NW,324,7.0,11.0,67,0.00,,,0.00,VWS V15.00,2013-03-06 17:45:00,
2013-03-06 11:46:00,24.1,15.1,30.38,NNW,341,4.0,11.0,68,0.00,,OVC016,0.00,VWS V14.01,2013-03-06 17:46:00,
2013-03-06 11:51:00,25.0,15.6,30.37,NW,308,13.0,13.0,67,0.00,,OVC016,0.00,VWS V14.01,2013-03-06 17:51:00,
2013-03-06 11:56:00,24.7,14.6,30.37,NNW,338,9.0,13.0,65,0.00,,OVC016,0.00,VWS V14.01,2013-03-06 17:56:00,
2013-03-06 12:00:00,24.7,15.0,30.37,NW,326,5.0,13.0,66,0.00,,,0.00,VWS V15.00,2013-03-06 18:00:00,
2013-03-06 12:01:00,24.2,14.5,30.37,WNW,300,3.0,13.0,66,0.00,,OVC016,0.00,VWS V14.01,2013-03-06 18:01:00,
2013-03-06 12:06:00,24.5,14.4,30.37,North,11,4.0,7.0,65,0.00,,OVC016,0.00,VWS V14.01,2013-03-06 18:06:00,
2013-03-06 12:11:00,24.8,15.1,30.37,NNW,329,6.0,8.0,66,0.00,,OVC016,0.00,VWS V14.01,2013-03-06 18:11:00,
2013-03-06 12:15:00,25.4,15.6,30.36,NW,322,5.0,10.0,66,0.00,,,0.00,VWS V15.00,2013-03-06 18:15:00,
2013-03-06 12:16:00,25.1,14.6,30.37,NW,325,0.0,8.0,64,0.00,,OVC016,0.00,VWS V14.01,2013-03-06 18:16:00,
2013-03-06 12:21:00,25.7,15.6,30.36,WNW,297,9.0,13.0,65,0.00,,OVC016,0.00,VWS V14.01,2013-03-06 18:21:00,
2013-03-06 12:26:00,26.6,16.1,30.36,WNW,297,5.0,13.0,64,0.00,,OVC016,0.00,VWS V14.01,2013-03-06 18:26:00,
2013-03-06 12:30:00,26.3,15.4,30.35,NNW,343,3.0,13.0,63,0.00,,,0.00,VWS V15.00,2013-03-06 18:30:00,
2013-03-06 12:31:00,26.4,15.9,30.36,NW,307,4.0,13.0,64,0.00,,OVC016,0.00,VWS V14.01,2013-03-06 18:31:00,
2013-03-06 12:36:00,25.8,15.0,30.35,NNW,343,2.0,9.0,63,0.00,,OVC018,0.00,VWS V14.01,2013-03-06 18:36:00,
2013-03-06 12:41:00,25.7,14.9,30.35,NNW,339,3.0,9.0,63,0.00,,OVC018,0.00,VWS V14.01,2013-03-06 18:41:00,
2013-03-06 12:45:00,26.7,16.5,30.35,NW,326,1.0,9.0,65,0.00,,,0.00,VWS V15.00,2013-03-06 18:45:00,
2013-03-06 12:46:00,26.4,15.9,30.35,NNW,330,0.0,9.0,64,0.00,,OVC018,0.00,VWS V14.01,2013-03-06 18:46:00,
2013-03-06 12:51:00,27.0,16.8,30.35,NNW,342,4.0,9.0,65,0.00,,OVC018,0.00,VWS V14.01,2013-03-06 18:51:00,
2013-03-06 12:56:00,26.9,15.6,30.35,NW,318,10.0,11.0,62,0.00,,OVC018,0.00,VWS V14.01,2013-03-06 18:56:00,
2013-03-06 13:00:00,26.7,15.8,30.35,NW,305,3.0,11.0,63,0.00,,,0.00,VWS V15.00,2013-03-06 19:00:00,
2013-03-06 13:01:00,26.7,15.4,30.35,WNW,300,1.0,11.0,62,0.00,,OVC018,0.00,VWS V14.01,2013-03-06 19:01:00,
2013-03-06 13:07:00,26.4,15.5,30.35,WNW,288,7.0,13.0,63,0.00,,OVC018,0.00,VWS V14.01,2013-03-06 19:07:00,
2013-03-06 13:12:00,25.7,15.2,30.35,WSW,251,3.0,13.0,64,0.00,,OVC018,0.00,VWS V14.01,2013-03-06 19:12:00,
2013-03-06 13:15:00,26.6,16.4,30.35,WNW,292,9.0,13.0,65,0.00,,,0.00,VWS V15.00,2013-03-06 19:15:00,
2013-03-06 13:17:00,26.4,16.2,30.35,NW,314,6.0,13.0,65,0.00,,OVC018,0.00,VWS V14.01,2013-03-06 19:17:00,
2013-03-06 13:22:00,26.1,15.6,30.35,WNW,298,0.0,11.0,64,0.00,,OVC018,0.00,VWS V14.01,2013-03-06 19:22:00,
2013-03-06 13:27:00,26.3,15.4,30.35,West,277,5.0,11.0,63,0.00,,OVC018,0.00,VWS V14.01,2013-03-06 19:27:00,
2013-03-06 13:30:00,26.9,16.0,30.34,NW,317,10.0,11.0,63,0.00,,,0.00,VWS V15.00,2013-03-06 19:30:00,
2013-03-06 13:32:00,26.9,16.7,30.35,NW,318,10.0,11.0,65,0.00,,BKN020,0.00,VWS V14.01,2013-03-06 19:32:00,
2013-03-06 13:37:00,26.7,15.8,30.34,NNW,336,3.0,14.0,63,0.00,,BKN020,0.00,VWS V14.01,2013-03-06 19:37:00,
2013-03-06 13:42:00,27.8,17.2,30.34,WNW,301,0.0,14.0,64,0.00,,BKN020,0.00,VWS V14.01,2013-03-06 19:42:00,
2013-03-06 13:45:00,27.2,15.6,30.34,WNW,286,6.0,14.0,61,0.00,,,0.00,VWS V15.00,2013-03-06 19:45:00,
2013-03-06 13:47:00,27.2,15.6,30.34,WNW,285,9.0,14.0,61,0.00,,BKN020,0.00,VWS V14.01,2013-03-06 19:47:00,
2013-03-06 13:52:00,27.0,15.7,30.34,West,272,0.0,7.0,62,0.00,,BKN020,0.00,VWS V14.01,2013-03-06 19:52:00,
2013-03-06 13:57:00,27.5,16.2,30.34,NW,310,10.0,11.0,62,0.00,,BKN020,0.00,VWS V14.01,2013-03-06 19:57:00,
2013-03-06 14:00:00,28.4,15.9,30.33,NW,315,3.0,12.0,59,0.00,,,0.00,VWS V15.00,2013-03-06 20:00:00,
2013-03-06 14:02:00,28.2,15.3,30.33,NW,316,7.0,12.0,58,0.00,,SCT020,0.00,VWS V14.01,2013-03-06 20:02:00,
2013-03-06 14:07:00,28.4,15.5,30.33,WNW,298,7.0,11.0,58,0.00,,SCT020,0.00,VWS V14.01,2013-03-06 20:07:00,
2013-03-06 14:12:00,28.4,15.1,30.33,NNW,337,6.0,11.0,57,0.00,,SCT020,0.00,VWS V14.01,2013-03-06 20:12:00,
2013-03-06 14:15:00,27.5,15.4,30.33,NW,318,0.0,11.0,60,0.00,,,0.00,VWS V15.00,2013-03-06 20:15:00,
2013-03-06 14:17:00,27.5,15.4,30.33,NW,318,1.0,11.0,60,0.00,,SCT020,0.00,VWS V14.01,2013-03-06 20:17:00,
2013-03-06 14:22:00,27.8,15.7,30.33,NW,317,1.0,5.0,60,0.00,,SCT020,0.00,VWS V14.01,2013-03-06 20:22:00,
2013-03-06 14:28:00,27.8,15.7,30.33,NW,314,0.0,12.0,60,0.00,,SCT020,0.00,VWS V14.01,2013-03-06 20:28:00,
2013-03-06 14:30:00,27.5,14.7,30.33,NW,314,2.0,12.0,58,0.00,,,0.00,VWS V15.00,2013-03-06 20:30:00,
2013-03-06 14:33:00,27.5,14.7,30.33,NW,314,2.0,12.0,58,0.00,,CLR,0.00,VWS V14.01,2013-03-06 20:33:00,
2013-03-06 14:38:00,27.3,14.9,30.33,NNW,330,1.0,11.0,59,0.00,,CLR,0.00,VWS V14.01,2013-03-06 20:38:00,
2013-03-06 14:43:00,27.5,15.8,30.33,NW,325,4.0,11.0,61,0.00,,CLR,0.00,VWS V14.01,2013-03-06 20:43:00,
2013-03-06 14:45:00,27.5,14.7,30.33,NW,315,6.0,11.0,58,0.00,,,0.00,VWS V15.00,2013-03-06 20:45:00,
2013-03-06 14:48:00,27.5,15.4,30.33,NW,305,5.0,6.0,60,0.00,,CLR,0.00,VWS V14.01,2013-03-06 20:48:00,
2013-03-06 14:53:00,27.5,14.7,30.33,WNW,300,6.0,8.0,58,0.00,,CLR,0.00,VWS V14.01,2013-03-06 20:53:00,
2013-03-06 14:58:00,27.3,14.5,30.33,WNW,300,1.0,8.0,58,0.00,,CLR,0.00,VWS V14.01,2013-03-06 20:58:00,
2013-03-06 15:00:00,27.5,15.1,30.32,WNW,286,1.0,8.0,59,0.00,,,0.00,VWS V15.00,2013-03-06 21:00:00,
2013-03-06 15:03:00,27.5,15.8,30.32,WNW,286,0.0,1.0,61,0.00,,CLR,0.00,VWS V14.01,2013-03-06 21:03:00,
2013-03-06 15:08:00,28.1,15.6,30.32,NW,310,5.0,10.0,59,0.00,,CLR,0.00,VWS V14.01,2013-03-06 21:08:00,
2013-03-06 15:13:00,27.9,15.1,30.32,North,349,0.0,10.0,58,0.00,,CLR,0.00,VWS V14.01,2013-03-06 21:13:00,
2013-03-06 15:15:00,28.2,15.3,30.32,WNW,292,7.0,10.0,58,0.00,,,0.00,VWS V15.00,2013-03-06 21:15:00,
2013-03-06 15:18:00,28.4,15.1,30.32,WNW,291,5.0,9.0,57,0.00,,CLR,0.00,VWS V14.01,2013-03-06 21:18:00,
2013-03-06 15:24:00,28.7,15.0,30.32,WNW,286,7.0,10.0,56,0.00,,CLR,0.00,VWS V14.01,2013-03-06 21:24:00,
2013-03-06 15:29:00,28.4,14.7,30.32,West,281,0.0,10.0,56,0.00,,CLR,0.00,VWS V14.01,2013-03-06 21:29:00,
2013-03-06 15:30:00,29.1,16.2,30.32,WNW,300,1.0,10.0,58,0.00,,,0.00,VWS V15.00,2013-03-06 21:30:00,
2013-03-06 15:34:00,29.4,16.5,30.32,NW,306,2.0,3.0,58,0.00,,CLR,0.00,VWS V14.01,2013-03-06 21:34:00,
2013-03-06 15:39:00,30.1,15.9,30.32,NW,309,2.0,6.0,55,0.00,,CLR,0.00,VWS V14.01,2013-03-06 21:39:00,
2013-03-06 15:44:00,29.8,15.6,30.32,NW,311,0.0,6.0,55,0.00,,CLR,0.00,VWS V14.01,2013-03-06 21:44:00,
2013-03-06 15:45:00,30.4,16.2,30.32,NW,311,0.0,6.0,55,0.00,,,0.00,VWS V15.00,2013-03-06 21:45:00,
2013-03-06 15:49:00,30.4,16.2,30.32,NW,311,3.0,3.0,55,0.00,,CLR,0.00,VWS V14.01,2013-03-06 21:49:00,
2013-03-06 15:54:00,30.6,15.5,30.32,NW,316,2.0,6.0,53,0.00,,CLR,0.00,VWS V14.01,2013-03-06 21:54:00,
2013-03-06 15:59:00,29.7,14.7,30.32,NW,322,2.0,7.0,53,0.00,,CLR,0.00,VWS V14.01,2013-03-06 21:59:00,
2013-03-06 16:00:00,29.3,15.1,30.31,NW,318,0.0,7.0,55,0.00,,,0.00,VWS V15.00,2013-03-06 22:00:00,
2013-03-06 16:04:00,29.1,15.0,30.31,NW,318,1.0,1.0,55,0.00,,CLR,0.00,VWS V14.01,2013-03-06 22:04:00,
2013-03-06 16:09:00,28.7,14.6,30.31,NW,317,0.0,7.0,55,0.00,,CLR,0.00,VWS V14.01,2013-03-06 22:09:00,
2013-03-06 16:14:00,29.7,15.1,30.31,NW,310,0.0,7.0,54,0.00,,CLR,0.00,VWS V14.01,2013-03-06 22:14:00,
2013-03-06 16:15:00,29.7,15.1,30.32,NW,309,1.0,7.0,54,0.00,,,0.00,VWS V15.00,2013-03-06 22:15:00,
2013-03-06 16:19:00,29.5,15.3,30.32,NW,309,1.0,1.0,55,0.00,,CLR,0.00,VWS V14.01,2013-03-06 22:19:00,
2013-03-06 16:24:00,29.5,15.3,30.32,NW,309,0.0,1.0,55,0.00,,CLR,0.00,VWS V14.01,2013-03-06 22:24:00,
2013-03-06 16:29:00,29.4,15.2,30.32,NW,322,3.0,6.0,55,0.00,,CLR,0.00,VWS V14.01,2013-03-06 22:29:00,
2013-03-06 16:30:00,29.1,15.0,30.32,NW,323,0.0,6.0,55,0.00,,,0.00,VWS V15.00,2013-03-06 22:30:00,
2013-03-06 16:34:00,29.3,15.6,30.32,NW,323,0.0,0.0,56,0.00,,CLR,0.00,VWS V14.01,2013-03-06 22:34:00,
2013-03-06 16:39:00,29.1,15.4,30.32,NW,322,1.0,1.0,56,0.00,,CLR,0.00,VWS V14.01,2013-03-06 22:39:00,
2013-03-06 16:44:00,28.8,14.7,30.32,NW,310,0.0,6.0,55,0.00,,CLR,0.00,VWS V14.01,2013-03-06 22:44:00,
2013-03-06 16:45:00,28.7,15.4,30.32,NW,309,0.0,6.0,57,0.00,,,0.00,VWS V15.00,2013-03-06 22:45:00,
2013-03-06 16:50:00,28.7,15.4,30.32,WNW,303,0.0,7.0,57,0.00,,CLR,0.00,VWS V14.01,2013-03-06 22:50:00,
2013-03-06 16:55:00,28.4,15.5,30.32,WNW,303,0.0,7.0,58,0.00,,CLR,0.00,VWS V14.01,2013-03-06 22:55:00,
2013-03-06 17:00:00,28.2,14.9,30.32,WNW,303,0.0,7.0,57,0.00,,CLR,0.00,VWS V14.01,2013-03-06 23:00:00,
2013-03-06 17:05:00,27.9,15.1,30.32,WNW,303,0.0,3.0,58,0.00,,CLR,0.00,VWS V14.01,2013-03-06 23:05:00,
2013-03-06 17:10:00,27.2,14.0,30.32,WNW,302,1.0,6.0,57,0.00,,CLR,0.00,VWS V14.01,2013-03-06 23:10:00,
2013-03-06 17:15:00,26.1,13.8,30.32,WNW,303,1.0,6.0,59,0.00,,CLR,0.00,VWS V14.01,2013-03-06 23:15:00,
2013-03-06 17:20:00,25.4,14.2,30.33,WNW,303,1.0,2.0,62,0.00,,CLR,0.00,VWS V14.01,2013-03-06 23:20:00,
2013-03-06 17:25:00,24.7,13.6,30.33,WNW,303,6.0,6.0,62,0.00,,CLR,0.00,VWS V14.01,2013-03-06 23:25:00,
2013-03-06 17:30:00,24.2,13.4,30.33,WNW,302,0.0,7.0,63,0.00,,CLR,0.00,VWS V14.01,2013-03-06 23:30:00,
2013-03-06 17:35:00,23.6,13.2,30.33,WNW,302,0.0,0.0,64,0.00,,CLR,0.00,VWS V14.01,2013-03-06 23:35:00,
2013-03-06 17:40:00,23.2,13.2,30.33,WNW,298,0.0,9.0,65,0.00,,CLR,0.00,VWS V14.01,2013-03-06 23:40:00,
2013-03-06 17:45:00,22.9,12.9,30.33,WNW,298,0.0,9.0,65,0.00,,CLR,0.00,VWS V14.01,2013-03-06 23:45:00,
2013-03-06 17:50:00,22.5,12.9,30.33,WNW,298,0.0,0.0,66,0.00,,CLR,0.00,VWS V14.01,2013-03-06 23:50:00,
2013-03-06 17:55:00,22.4,12.8,30.33,WNW,298,0.0,0.0,66,0.00,,CLR,0.00,VWS V14.01,2013-03-06 23:55:00,
2013-03-06 18:00:00,22.1,13.2,30.33,WNW,298,0.0,0.0,68,0.00,,CLR,0.00,VWS V14.01,2013-03-07 00:00:00,
2013-03-06 18:05:00,21.8,12.9,30.33,WNW,298,0.0,0.0,68,0.00,,CLR,0.00,VWS V14.01,2013-03-07 00:05:00,
2013-03-06 18:11:00,21.4,12.8,30.33,WNW,298,0.0,0.0,69,0.00,,CLR,0.00,VWS V14.01,2013-03-07 00:11:00,
2013-03-06 18:15:00,20.8,12.9,30.33,WNW,298,0.0,0.0,71,0.00,,,0.00,VWS V15.00,2013-03-07 00:15:00,
2013-03-06 18:16:00,21.1,13.2,30.33,WNW,298,0.0,0.0,71,0.00,,CLR,0.00,VWS V14.01,2013-03-07 00:16:00,
2013-03-06 18:21:00,20.5,12.9,30.33,WNW,298,0.0,0.0,72,0.00,,CLR,0.00,VWS V14.01,2013-03-07 00:21:00,
2013-03-06 18:26:00,19.9,12.7,30.33,WNW,298,0.0,0.0,73,0.00,,CLR,0.00,VWS V14.01,2013-03-07 00:26:00,
2013-03-06 18:30:00,19.2,12.0,30.34,WNW,298,0.0,0.0,73,0.00,,,0.00,VWS V15.00,2013-03-07 00:30:00,
2013-03-06 18:31:00,19.2,12.0,30.33,WNW,298,0.0,0.0,73,0.00,,CLR,0.00,VWS V14.01,2013-03-07 00:31:00,
2013-03-06 18:36:00,18.9,12.0,30.34,WNW,298,0.0,0.0,74,0.00,,CLR,0.00,VWS V14.01,2013-03-07 00:36:00,
2013-03-06 18:41:00,18.6,11.7,30.34,WNW,298,0.0,1.0,74,0.00,,CLR,0.00,VWS V14.01,2013-03-07 00:41:00,
2013-03-06 18:45:00,18.1,11.2,30.34,WNW,296,1.0,5.0,74,0.00,,,0.00,VWS V15.00,2013-03-07 00:45:00,
2013-03-06 18:46:00,18.1,11.2,30.34,WNW,297,1.0,5.0,74,0.00,,CLR,0.00,VWS V14.01,2013-03-07 00:46:00,
2013-03-06 18:51:00,17.8,10.9,30.34,WNW,296,0.0,1.0,74,0.00,,CLR,0.00,VWS V14.01,2013-03-07 00:51:00,
2013-03-06 18:56:00,17.5,10.9,30.34,WNW,296,0.0,1.0,75,0.00,,CLR,0.00,VWS V14.01,2013-03-07 00:56:00,
2013-03-06 19:00:00,16.9,10.7,30.34,WNW,296,0.0,1.0,76,0.00,,,0.00,VWS V15.00,2013-03-07 01:00:00,
2013-03-06 19:01:00,17.0,10.5,30.34,WNW,296,0.0,1.0,75,0.00,,CLR,0.00,VWS V14.01,2013-03-07 01:01:00,
2013-03-06 19:06:00,16.7,10.8,30.34,WNW,296,0.0,0.0,77,0.00,,CLR,0.00,VWS V14.01,2013-03-07 01:06:00,
2013-03-06 19:11:00,16.5,10.9,30.34,WNW,296,0.0,0.0,78,0.00,,CLR,0.00,VWS V14.01,2013-03-07 01:11:00,
2013-03-06 19:15:00,16.5,10.9,30.34,WNW,296,0.0,0.0,78,0.00,,,0.00,VWS V15.00,2013-03-07 01:15:00,
2013-03-06 19:16:00,16.5,10.9,30.34,WNW,296,0.0,0.0,78,0.00,,CLR,0.00,VWS V14.01,2013-03-07 01:16:00,
2013-03-06 19:21:00,16.4,10.8,30.34,WNW,296,0.0,0.0,78,0.00,,CLR,0.00,VWS V14.01,2013-03-07 01:21:00,
2013-03-06 19:26:00,16.7,11.3,30.34,WNW,296,0.0,0.0,79,0.00,,CLR,0.00,VWS V14.01,2013-03-07 01:26:00,
2013-03-06 19:30:00,16.5,10.9,30.34,WNW,296,0.0,0.0,78,0.00,,,0.00,VWS V15.00,2013-03-07 01:30:00,
2013-03-06 19:31:00,16.7,11.3,30.34,WNW,296,0.0,0.0,79,0.00,,CLR,0.00,VWS V14.01,2013-03-07 01:31:00,
2013-03-06 19:36:00,16.4,11.0,30.34,WNW,296,0.0,0.0,79,0.00,,CLR,0.00,VWS V14.01,2013-03-07 01:36:00,
2013-03-06 19:41:00,16.2,10.8,30.34,WNW,296,0.0,0.0,79,0.00,,CLR,0.00,VWS V14.01,2013-03-07 01:41:00,
2013-03-06 19:45:00,16.1,10.8,30.34,WNW,296,0.0,0.0,79,0.00,,,0.00,VWS V15.00,2013-03-07 01:45:00,
2013-03-06 19:46:00,16.1,10.8,30.34,WNW,296,0.0,0.0,79,0.00,,CLR,0.00,VWS V14.01,2013-03-07 01:46:00,
2013-03-06 19:51:00,15.9,10.6,30.34,WNW,296,0.0,0.0,79,0.00,,CLR,0.00,VWS V14.01,2013-03-07 01:51:00,
2013-03-06 19:56:00,15.7,10.6,30.34,WNW,296,0.0,0.0,80,0.00,,CLR,0.00,VWS V14.01,2013-03-07 01:56:00,
2013-03-06 20:00:00,15.4,10.4,30.34,WNW,296,0.0,0.0,80,0.00,,,0.00,VWS V15.00,2013-03-07 02:00:00,
2013-03-06 20:01:00,15.6,10.5,30.34,WNW,296,0.0,0.0,80,0.00,,CLR,0.00,VWS V14.01,2013-03-07 02:01:00,
2013-03-06 20:06:00,15.2,10.1,30.34,WNW,296,0.0,0.0,80,0.00,,CLR,0.00,VWS V14.01,2013-03-07 02:06:00,
2013-03-06 20:11:00,14.8,9.8,30.34,WNW,296,0.0,0.0,80,0.00,,CLR,0.00,VWS V14.01,2013-03-07 02:11:00,
2013-03-06 20:15:00,13.3,8.0,30.34,WNW,296,0.0,0.0,79,0.00,,,0.00,VWS V15.00,2013-03-07 02:15:00,
2013-03-06 20:17:00,13.6,8.3,30.34,WNW,296,0.0,0.0,79,0.00,,CLR,0.00,VWS V14.01,2013-03-07 02:17:00,
2013-03-06 20:22:00,12.6,7.6,30.34,WNW,296,0.0,0.0,80,0.00,,CLR,0.00,VWS V14.01,2013-03-07 02:22:00,
2013-03-06 20:27:00,12.3,7.6,30.34,WNW,296,0.0,0.0,81,0.00,,CLR,0.00,VWS V14.01,2013-03-07 02:27:00,
2013-03-06 20:30:00,12.1,7.9,30.34,WNW,296,0.0,0.0,83,0.00,,,0.00,VWS V15.00,2013-03-07 02:30:00,
2013-03-06 20:32:00,12.1,7.7,30.34,WNW,296,0.0,0.0,82,0.00,,CLR,0.00,VWS V14.01,2013-03-07 02:32:00,
2013-03-06 20:37:00,11.9,7.7,30.34,WNW,296,0.0,0.0,83,0.00,,CLR,0.00,VWS V14.01,2013-03-07 02:37:00,
2013-03-06 20:42:00,12.3,8.4,30.34,WNW,296,0.0,0.0,84,0.00,,CLR,0.00,VWS V14.01,2013-03-07 02:42:00,
2013-03-06 20:45:00,12.3,8.4,30.34,WNW,296,0.0,0.0,84,0.00,,,0.00,VWS V15.00,2013-03-07 02:45:00,
2013-03-06 20:47:00,12.4,8.5,30.34,WNW,296,0.0,0.0,84,0.00,,CLR,0.00,VWS V14.01,2013-03-07 02:47:00,
2013-03-06 20:52:00,12.1,8.2,30.34,WNW,296,0.0,0.0,84,0.00,,CLR,0.00,VWS V14.01,2013-03-07 02:52:00,
2013-03-06 20:57:00,11.6,7.7,30.34,WNW,296,0.0,0.0,84,0.00,,CLR,0.00,VWS V14.01,2013-03-07 02:57:00,
2013-03-06 21:00:00,11.1,7.2,30.34,WNW,296,0.0,0.0,84,0.00,,,0.00,VWS V15.00,2013-03-07 03:00:00,
2013-03-06 21:02:00,10.9,6.8,30.34,WNW,296,0.0,0.0,83,0.00,,CLR,0.00,VWS V14.01,2013-03-07 03:02:00,
2013-03-06 21:07:00,11.2,7.6,30.34,WNW,296,0.0,0.0,85,0.00,,CLR,0.00,VWS V14.01,2013-03-07 03:07:00,
2013-03-06 21:12:00,11.6,8.2,30.34,WNW,296,0.0,0.0,86,0.00,,CLR,0.00,VWS V14.01,2013-03-07 03:12:00,
2013-03-06 21:15:00,12.4,9.3,30.33,WNW,296,0.0,0.0,87,0.00,,,0.00,VWS V15.00,2013-03-07 03:15:00,
2013-03-06 21:17:00,12.3,9.2,30.33,WNW,296,0.0,0.0,87,0.00,,CLR,0.00,VWS V14.01,2013-03-07 03:17:00,
2013-03-06 21:22:00,12.3,8.9,30.33,WNW,296,0.0,0.0,86,0.00,,CLR,0.00,VWS V14.01,2013-03-07 03:22:00,
2013-03-06 21:27:00,11.9,8.3,30.33,WNW,296,0.0,0.0,85,0.00,,CLR,0.00,VWS V14.01,2013-03-07 03:27:00,
2013-03-06 21:30:00,11.1,7.5,30.34,WNW,296,0.0,0.0,85,0.00,,,0.00,VWS V15.00,2013-03-07 03:30:00,
2013-03-06 21:32:00,11.1,7.5,30.34,WNW,296,0.0,0.0,85,0.00,,CLR,0.00,VWS V14.01,2013-03-07 03:32:00,
2013-03-06 21:37:00,11.1,7.7,30.34,WNW,296,0.0,0.0,86,0.00,,CLR,0.00,VWS V14.01,2013-03-07 03:37:00,
2013-03-06 21:42:00,10.7,7.3,30.34,WNW,296,0.0,0.0,86,0.00,,CLR,0.00,VWS V14.01,2013-03-07 03:42:00,
2013-03-06 21:45:00,10.4,6.8,30.34,WNW,296,0.0,0.0,85,0.00,,,0.00,VWS V15.00,2013-03-07 03:45:00,
2013-03-06 21:48:00,10.4,6.8,30.34,WNW,296,0.0,0.0,85,0.00,,CLR,0.00,VWS V14.01,2013-03-07 03:48:00,
2013-03-06 21:53:00,10.4,7.1,30.34,WNW,296,0.0,0.0,86,0.00,,CLR,0.00,VWS V14.01,2013-03-07 03:53:00,
2013-03-06 21:58:00,10.0,6.7,30.34,WNW,296,0.0,0.0,86,0.00,,CLR,0.00,VWS V14.01,2013-03-07 03:58:00,
2013-03-06 22:00:00,9.7,6.4,30.34,WNW,296,0.0,0.0,86,0.00,,,0.00,VWS V15.00,2013-03-07 04:00:00,
2013-03-06 22:03:00,9.7,6.4,30.34,WNW,296,0.0,0.0,86,0.00,,CLR,0.00,VWS V14.01,2013-03-07 04:03:00,
2013-03-06 22:08:00,9.3,6.0,30.34,WNW,296,0.0,0.0,86,0.00,,CLR,0.00,VWS V14.01,2013-03-07 04:08:00,
2013-03-06 22:13:00,9.2,5.9,30.34,WNW,296,0.0,0.0,86,0.00,,CLR,0.00,VWS V14.01,2013-03-07 04:13:00,
2013-03-06 22:15:00,9.0,5.7,30.34,WNW,296,0.0,0.0,86,0.00,,,0.00,VWS V15.00,2013-03-07 04:15:00,
2013-03-06 22:18:00,9.0,5.7,30.34,WNW,296,0.0,0.0,86,0.00,,CLR,0.00,VWS V14.01,2013-03-07 04:18:00,
2013-03-06 22:23:00,8.6,5.3,30.34,WNW,296,0.0,0.0,86,0.00,,CLR,0.00,VWS V14.01,2013-03-07 04:23:00,
2013-03-06 22:28:00,8.3,5.0,30.34,WNW,296,0.0,0.0,86,0.00,,CLR,0.00,VWS V14.01,2013-03-07 04:28:00,
2013-03-06 22:30:00,7.7,4.1,30.35,WNW,296,0.0,0.0,85,0.00,,,0.00,VWS V15.00,2013-03-07 04:30:00,
2013-03-06 22:33:00,7.7,4.1,30.35,WNW,296,0.0,0.0,85,0.00,,SCT120,0.00,VWS V14.01,2013-03-07 04:33:00,
2013-03-06 22:38:00,6.7,2.9,30.35,WNW,296,0.0,0.0,84,0.00,,SCT120,0.00,VWS V14.01,2013-03-07 04:38:00,
2013-03-06 22:43:00,6.9,3.3,30.35,WNW,296,0.0,0.0,85,0.00,,SCT120,0.00,VWS V14.01,2013-03-07 04:43:00,
2013-03-06 22:45:00,6.3,2.8,30.35,WNW,296,0.0,0.0,85,0.00,,,0.00,VWS V15.00,2013-03-07 04:45:00,
2013-03-06 22:48:00,6.3,2.8,30.35,WNW,296,0.0,0.0,85,0.00,,SCT120,0.00,VWS V14.01,2013-03-07 04:48:00,
2013-03-06 22:53:00,6.0,2.5,30.35,WNW,296,0.0,0.0,85,0.00,,SCT120,0.00,VWS V14.01,2013-03-07 04:53:00,
2013-03-06 22:58:00,5.4,1.6,30.35,WNW,296,0.0,0.0,84,0.00,,SCT120,0.00,VWS V14.01,2013-03-07 04:58:00,
2013-03-06 23:00:00,5.6,1.8,30.35,WNW,296,0.0,0.0,84,0.00,,SCT120,0.00,VWS V14.01,2013-03-07 05:00:00,
2013-03-06 23:01:00,5.4,1.9,30.35,WNW,296,0.0,0.0,85,0.00,,SCT110,0.00,VWS V14.01,2013-03-07 05:01:00,
2013-03-06 23:03:00,5.4,1.9,30.35,WNW,296,0.0,0.0,85,0.00,,SCT110,0.00,VWS V14.01,2013-03-07 05:03:00,
2013-03-06 23:05:00,5.6,2.1,30.35,WNW,296,0.0,0.0,85,0.00,,SCT110,0.00,VWS V14.01,2013-03-07 05:05:00,
2013-03-06 23:10:00,6.0,2.7,30.35,WNW,296,0.0,0.0,86,0.00,,SCT110,0.00,VWS V14.01,2013-03-07 05:10:00,
2013-03-06 23:15:00,6.1,2.8,30.35,WNW,296,0.0,0.0,86,0.00,,SCT110,0.00,VWS V14.01,2013-03-07 05:15:00,
2013-03-06 23:20:00,5.8,2.3,30.35,WNW,296,0.0,0.0,85,0.00,,SCT110,0.00,VWS V14.01,2013-03-07 05:20:00,
2013-03-06 23:25:00,5.6,2.1,30.35,WNW,296,0.0,0.0,85,0.00,,SCT110,0.00,VWS V14.01,2013-03-07 05:25:00,
2013-03-06 23:30:00,5.2,1.7,30.35,WNW,296,0.0,0.0,85,0.00,,SCT110,0.00,VWS V14.01,2013-03-07 05:30:00,
2013-03-06 23:35:00,5.0,1.5,30.35,WNW,296,0.0,0.0,85,0.00,,SCT110,0.00,VWS V14.01,2013-03-07 05:35:00,
2013-03-06 23:40:00,4.8,1.3,30.35,WNW,296,0.0,0.0,85,0.00,,SCT110,0.00,VWS V14.01,2013-03-07 05:40:00,
2013-03-06 23:45:00,4.7,1.2,30.35,WNW,296,0.0,0.0,85,0.00,,,0.00,VWS V15.00,2013-03-07 05:45:00,
2013-03-06 23:46:00,4.7,1.2,30.35,WNW,296,0.0,0.0,85,0.00,,SCT110,0.00,VWS V14.01,2013-03-07 05:46:00,
2013-03-06 23:51:00,4.5,0.7,30.35,WNW,296,0.0,0.0,84,0.00,,SCT110,0.00,VWS V14.01,2013-03-07 05:51:00,
2013-03-06 23:56:00,4.3,0.6,30.35,WNW,296,0.0,0.0,84,0.00,,SCT110,0.00,VWS V14.01,2013-03-07 05:56:00,